User: anonymous   Login
Location: Unspecified
(0.0000°N, 0.0000°E)
Time: 22:21:12
(UTC+00:00)
Language:

STARLINK-3576 - Orbit

View from above orbital plane
View from above orbital plane
View from above satellite
View from above satellite

Ground track
Ground track

The orbit is defined by the following mean orbital elements,

1 51883U          26145.35815142 +.00000000 +00000-0 +22653-3 0 00006
2 51883  53.2132  15.1239 0001182  87.4697 272.6430 15.08829051    00
Epoch (UTC): 25 May 2026 08:35:44
Eccentricity: 0.0001182
inclination: 53.2132°
perigee height: 539 km
apogee height: 541 km
right ascension of ascending node: 15.1239°
argument of perigee: 87.4697°
revolutions per day: 15.08829051
mean anomaly at epoch: 272.6430°

The dashed part of the orbit path shows where the satellite is in the earth's shadow,  

DLR